CUTE-1.7+APD II (CO-65) (32785 NORAD) Tracking and Keplerian Element Data

This shows tracking and keplerian element data for the satellite.

Feedback or suggestion? Click here.




ElementValue
Catalog32785
NameCUTE-1.7+APD II (CO-65)
Epoch Orbit78975
Epoch Day324.71613186
Epoch Year2022
RAAN290.8413
Inclination97.679
Eccentricity0.0014321
Argument of Perigee76.9066
Mean Anonmoly283.375
Mean Motion14.90255249
Decay Rate2.092E-05
L11 32785U 08021C 22324.71613186 .00002092 00000+0 22084-3 0 9993
L22 32785 97.6790 290.8413 0014321 76.9066 283.3750 14.90255249789752



Live tracking and technical data element details for CUTE-1.7+APD II (CO-65) (NORAD 32785). CUTE-1.7+APD II (CO-65) can be tracked NOW for your location showing map with azimuth and elevation plus other details from your city location.







IsCatalogInMostPopularTable: catalog: 32785, numindb: 350
Update: records affected: 1



GetName: 32785 CUTE-1.7+APD II (CO-65)

Hit Count: updated at: Fri, 02 Dec 2022 13:19:32 GMT